Regional Weather Roundup
Issued by NWS Charleston, SC

Current Version | Previous Version | Graphics & Text | Print | Product List | Glossary On
Versions: 1 2 3 4 5 6 7 8 9 10 11 12 13 14 15 16 17 18 19 20 21 22 23 24 25 26 27 28 29 30 31 32 33 34 35 36 37 38 39 40 41 42 43 44 45 46 47 48 49 50
216
ASUS42 KCHS 262113
RWRCHS

REGIONAL WEATHER ROUNDUP
NATIONAL WEATHER SERVICE CHARLESTON SC
500 PM EDT TUE JUL 26 2016

NOTE: "FAIR" INDICATES FEW OR NO CLOUDS BELOW 12,000 FEET WITH NO
SIGNIFICANT WEATHER AND/OR OBSTRUCTIONS TO VISIBILITY.

NOT ALL STATIONS ARE QUALITY CONTROLLED. USE DATA WITH CAUTION...
ESPECIALLY DEWPOINT OBSERVATIONS.

SCZ027-030-031-034>040-042>050-262200-
...SOUTHEAST SOUTH CAROLINA...

CITY           SKY/WX    TMP DP  RH WIND       PRES   REMARKS
N CHARLESTON   MOSUNNY   94  74  52 S15G22    29.99F HX 104
WATERFRONT PRK   N/A     88  78  72 S9        29.99F HX 101
MOUNT PLEASANT FAIR      91  77  62 SW12      30.00S HX 105
JOHNS ISLAND   FAIR      90  77  66 S13G20    30.01S HX 102
PINOPOLIS        N/A     93  72  49 VRB3      29.90F HX 100
MONCKS CORNER  FAIR      91  64  40 S7        29.98S HX  93
SUMMERVILLE    NOT AVBL
BEAUFORT MCAS  MOSUNNY   93  76  57 S8        30.01S HX 105
BEAUFORT ARPT  FAIR      90  73  58 S9G17     30.01S HX  98
HILTON HEAD IS SUNNY     95  77  55 S8G16     30.03F HX 109
WALTERBORO     CLEAR     97  64  34 S9        30.00F HX  99
ALLENDALE      FAIR      97  66  36 SW8       29.98F HX 100

...SOUTHERN MIDLANDS AND PEE DEE...

CITY           SKY/WX    TMP DP  RH WIND       PRES   REMARKS
GEORGETOWN     FAIR      90  75  62 S12       30.00F HX 100
KINGSTREE      FAIR      97  68  38 SE7       29.97F HX 101
ORANGEBURG     SUNNY     97  68  38 SW9       29.98F HX 102
BARNWELL       NOT AVBL
AIKEN          FAIR      95  66  38 S10       30.02F HX  98
MANNING        FAIR      95  70  43 S7        29.97F HX 101
COLUMBIA       MOSUNNY  101  68  34 S13G22    29.95F HX 106
SUMTER         MOSUNNY   96  71  42 SW9       29.94F HX 103
FLORENCE       MOSUNNY   96  68  39 SW7       29.96F HX 101
MYRTLE BEACH   MOSUNNY   90  72  55 S17       30.00F HX  96
N MYRTLE BEACH SUNNY     88  77  69 SW15      29.98F HX 100

$$

GAZ063-065-086>088-099>101-113>116-118-119-134>141-150-262200-
...SOUTHEAST GEORGIA...

CITY           SKY/WX    TMP DP  RH WIND       PRES   REMARKS
SAVANNAH ARPT  PTSUNNY   93  73  52 S17       30.01F HX 102
HUNTER AAF     MOSUNNY   88  76  67 S12       30.00S HX  99
FORT STEWART   CLOUDY    89  75  63 SE5       29.99F HX  99
STATESBORO     CLOUDY    92  74  53 S8        30.01F HX 102
SYLVANIA       NOT AVBL
CLAXTON        MOCLDY    92  73  53 S6        30.01S HX 100

...CSRA...CENTRAL AND FAR SOUTHEAST GEORGIA...

CITY           SKY/WX    TMP DP  RH WIND       PRES   REMARKS
THOMSON        NOT AVBL
AUGUSTA-BUSH   MOSUNNY  100  63  29 SW10G16   29.97F HX 102
AUGUSTA-DANIEL SUNNY     98  65  33 MISG      29.99F HX 101
SWAINSBORO     CLOUDY    93  70  46 SW8       30.01F HX  99
VIDALIA        CLOUDY    93  68  43 S3        30.02S HX  97
EASTMAN        FAIR      94  57  28 CALM      30.02F HX  92
HAZLEHURST     FAIR      96  71  43 CALM      30.00S HX 103
ALMA           MOSUNNY   94  69  44 VRB3      30.01F HX  99
WAYCROSS       CLOUDY    96  74  48 S6        30.01S HX 107
JESUP          FAIR      97  75  49 CALM      30.00F HX 109
BAXLEY         FAIR      95  72  46 SW3       30.01S HX 103
BRUNSWICK      SUNNY     91  77  62 SE12      30.03S HX 105
SAINT SIMONS   SUNNY     90  74  59 SE14      30.02F HX  99

$$

SCZ027-028-034-036>038-045-046-048>050-GAZ119-141-262200-
...LAKE AND SUPPLEMENTAL COASTAL OBSERVATIONS...

STATION/POSITION TIME  TEMP    WIND        PRES    WAVE   SWELL
                       AIR SEA DIR/SP/G            HT/PER HT/PER/DIR
                 (UTC) (F)     (DEG/KT/KT) (MB)    (FT/S) (FT/S/D)
WINYAH BAY       NOT AVBL
LAKE MURRAY      NOT AVBL
ACE BASIN NERRS  NOT AVBL
FORT PULASKI     2000   89 88  150/  8/ 13 1017.3F
SAPELO ISLAND    2000   95     140/  9     1017.0S

$$

ANZ835-935-AMZ111-154-330-350-352-354-370-450-454-472-262200-
...C-MAN AND BUOY OBSERVATIONS...

STATION/POSITION TIME  TEMP    WIND        PRES    WAVE   SWELL
                       AIR SEA DIR/SP/G            HT/PER HT/PER/DIR
                 (UTC) (F)     (DEG/KT/KT) (MB)    (FT/S) (FT/S/D)
BUOY 41004       2050   85 86  210/ 14/ 16 1016.0F   2/ 4   2/140/ 8
BUOY 41008       2050   85 88  140/ 10/ 12 1016.9F   1/ 8   2/110/ 8
FOLLY BEACH CMAN 2000   86     200/ 16/ 19 1016.7F
CAPERS NEARSHORE 2008   85 85  220/ 16/ 21 1016.3F
FRIPP NEARSHORE  2008   86 87  190/ 14/ 17 1016.1F


STATION/POSITION TIME  TEMP    WIND        PRES    WAVE   SWELL
                       AIR SEA DIR/SP/G            HT/PER HT/PER/DIR
                 (UTC) (F)     (DEG/KT/KT) (MB)    (FT/S) (FT/S/D)
5E ST. MARYS GA  2001      87                N/A     2/ 8
FRYING PAN BUOY  2000   85 86  210/ 10/ 14 1016.0F
BUOY 41025       2050   85 85  230/ 19/ 21 1014.1F   5/ 6   2/200/ 9
CAPE LOOKOUT NC  2100   86     220/ 13/ 17 1014.1F
BUOY 41002       2050   84 85  260/  8/ 10 1017.8F   2/ 4   2/220/ 4
BUOY 41010       2020   84 87   50/  2/  4 1018.5F
ST AUGUSTINE FL  2100   85 88  140/ 14/ 15 1017.7F


$$




USA.gov is the U.S. government's official web portal to all federal, state and local government web resources and services.